Tracking 18945 objects as of 20-Jan-2018
HD Live streaming from Space Station
objects crossing your sky now

FENGYUN 1C DEB

Track FENGYUN 1C DEB now!
10-day predictions


NORAD ID: 30916
Int'l Code: 1999-025AZE
Perigee: 841.9 km
Apogee: 954.5 km
Inclination: 99.3 °
Period: 102.8 minutes
Semi major axis: 7269 km
RCS: 0.0136 m2 (small)
Launch date: May 10, 1999
Source: People's Republic of China (PRC)
Launch site: Taiyaun Space Center, China (TSC)

Note: This is SATELLITE DEBRIS
aabbcc
Your satellite tracking list
Your tracking list is empty




NASA's NSSDC Master Catalog

Two Line Element Set (TLE):
1 30916U 99025AZE 18018.99052194 +.00000239 +00000-0 +18636-3 0  9992
2 30916 099.2692 025.0276 0077505 312.1504 076.6905 14.00791226553907
Source of the keplerian elements: AFSPC